Tracking 30101 objects as of 13-Dec-2024
HD Live streaming from Space Station
objects crossing your sky now

STARLINK-5289

Track STARLINK-5289 now!
10-day predictions
STARLINK-5289 is classified as:


NORAD ID: 55278
Int'l Code: 2023-010K
Perigee: 577.1 km
Apogee: 581.3 km
Inclination: 70.0 °
Period: 96.1 minutes
Semi major axis: 6950 km
RCS: Unknown
Launch date: January 19, 2023
Source: United States (US)
Launch site: AIR FORCE WESTERN TEST RANGE (AFWTR)
Your satellite tracking list
Your tracking list is empty




NASA's NSSDC Master Catalog

Two Line Element Set (TLE):
1 55278U 23010K   24347.76483336  .00001536  00000-0  13650-3 0  9996
2 55278  70.0001 103.8507 0003006 271.4225  88.6589 14.98333110105084
Source of the keplerian elements: AFSPC